Regional Weather Roundup
Issued by NWS

Home | Current Version | Previous Version | Text Only | Print | Product List | Glossary On
Versions: 1 2 3 4 5 6 7 8 9 10 11 12 13 14 15 16 17 18 19 20 21 22 23 24 25 26 27 28 29 30 31 32 33 34 35 36 37 38 39 40 41 42 43 44 45 46 47 48 49 50
000
ASUS43 KLOT 271208
RWRIL

ILLINOIS REGIONAL WEATHER ROUNDUP
NATIONAL WEATHER SERVICE CHICAGO/ROMEOVILLE IL
700 AM CDT FRI MAR 27 2015

NOTE: "FAIR" INDICATES FEW OR NO CLOUDS BELOW 12,000 FEET WITH NO
SIGNIFICANT WEATHER AND/OR OBSTRUCTIONS TO VISIBILITY.

* THESE STATIONS ARE NOT UNDER NWS QUALITY CONTROL. THEY ALSO MAY NOT
  REPORT WEATHER SUCH AS PRECIPITATION OR FOG.

ILZ001-002-007-009-015-016-024-271300-
NORTHWEST ILLINOIS

CITY           SKY/WX    TMP DP  RH WIND       PRES   REMARKS
MOLINE         CLOUDY    28  14  55 N13       30.17R WCI  17
6HR MIN TEMP:  28; 6HR MAX TEMP:  31;

STERLING*      CLEAR     23  10  58 N14       30.18R WCI  11
SAVANNA*       CLEAR     22  10  57 N14       30.20R WCI  10
$$

ILZ003-004-008-010-011-017-018-271300-
NORTH CENTRAL ILLINOIS

CITY           SKY/WX    TMP DP  RH WIND       PRES   REMARKS
ROCKFORD       MOCLDY    22   8  55 N16       30.19R WCI   8
6HR MIN TEMP:  21; 6HR MAX TEMP:  31; 6HR PCP: TRACE;

FREEPORT*      CLEAR     19  10  66 N9        30.19R WCI   8
ROCHELLE*      CLEAR     21  12  69 N13       30.16R WCI   8
DE KALB*       CLEAR     20  13  74 N13       30.14R WCI   7
PERU*          CLEAR     26  16  65 N13       30.16R WCI  15
$$

ILZ005-006-012>014-019>023-271300-
NORTHEAST ILLINOIS

CITY           SKY/WX    TMP DP  RH WIND       PRES   REMARKS
CHICAGO-OHARE  LGT SNOW  23  12  62 N16G23    30.13R WCI  10
6HR MIN TEMP:  23; 6HR MAX TEMP:  31; 6HR PCP:  0.04;

CHICAGO-MIDWAY LGT SNOW  26  20  77 N17G28    30.12R FOG     WCI  13
6HR MIN TEMP:  26; 6HR MAX TEMP:  32; 6HR PCP:  0.01;

AURORA         CLEAR     23  14  68 N15       30.13R WCI  10
6HR MIN TEMP:  23; 6HR MAX TEMP:  32; 6HR PCP: TRACE;

LANSING*       LGT SNOW  26  20  79 N14G23    30.11R WCI  14
JOLIET*        LGT SNOW  29  26  90 N7        30.12R WCI  22
WAUKEGAN       CLOUDY    19   5  54 N10G17    30.14R WCI   7
6HR MIN TEMP:  19; 6HR MAX TEMP:  28; 6HR PCP:  0.02;

DUPAGE AIRPORT MOCLDY    24  14  65 N12       30.12R WCI  13
6HR MIN TEMP:  24; 6HR MAX TEMP:  31; 6HR PCP: TRACE;

KANKAKEE*      FLURRIES  29  25  86 N8        30.11R WCI  21
WHEELING       CLOUDY    22   7  52 N16G23    30.15R WCI   8
6HR MIN TEMP:  22; 6HR MAX TEMP:  29; 6HR PCP: TRACE;

MORRIS*        MOCLDY    26  18  71 N8G17     30.12R WCI  17
ROMEOVILLE*    LGT SNOW  25  21  85 NE17      30.12R WCI  12
NORTHERLY ISL    N/A     25  19  78 N22         N/A  WCI  10
$$

LMZ740>746-271300-
SOUTHERN LAKE MICHIGAN

STATION/POSITION SKY/WX   TEMP    WIND        PRES    VSBY  WAVE
                          AIR SEA DIR/SP/G                  HT/PER
                          (F)     (DEG/KT/KT) (MB)    (MI)  (FT/S)
HARRISON CRIB              25      10/ 25/ 30   N/A
BURNHAM HARBOR             25     350/ 14/ 22   N/A
CALUMET HARBOR             27     350/ 17/ 23 1018.1R
BURNS HARBOR               28      30/ 20/ 25 1019.0R
MICHIGAN CITY              25      10/ 22/ 26   N/A
$$

ILZ025>027-034>036-040-047-049-050-058-095>099-271300-
WEST-CENTRAL ILLINOIS

CITY           SKY/WX    TMP DP  RH WIND       PRES   REMARKS
QUINCY         CLEAR     27  20  75 N8        30.15R WCI  19
GALESBURG*     MOCLDY    24  22  91 N8        30.15R WCI  15
MACOMB*        CLEAR     26  23  91 N6        30.18R WCI  19
JACKSONVILLE*  CLOUDY    31  25  78 N7        30.15R WCI  24
PITTSFIELD*    PTCLDY    31  24  75 N7        30.16R WCI  24
$$

ILZ028>032-037-038-041>044-048-051>054-059>061-271300-
CENTRAL ILLINOIS

CITY           SKY/WX    TMP DP  RH WIND       PRES   REMARKS
PONTIAC        CLEAR     28  20  74 N13       30.13R WCI  17
BLOOMINGTON    CLEAR     27  19  71 N13       30.12R WCI  16
DECATUR        CLOUDY    31  21  66 N14       30.11R WCI  21
PEORIA         CLOUDY    28  20  71 N5        30.15R WCI  23
6HR MIN TEMP:  27; 6HR MAX TEMP:  32;

LACON*         CLEAR     27  13  57 N12       30.14R WCI  16
LINCOLN*       CLEAR     29  23  78 N6        30.15R WCI  23
SPRINGFIELD    PTCLDY    29  22  75 N9        30.14R WCI  20
6HR MIN TEMP:  29; 6HR MAX TEMP:  35;

TAYLORVILLE    CLOUDY    32  27  80 N13       30.11R WCI  22
$$

ILZ033-039-045-046-055>057-062-063-271300-
EAST-CENTRAL ILLINOIS

CITY           SKY/WX    TMP DP  RH WIND       PRES   REMARKS
CHAMPAIGN      MOCLDY    30  22  72 N13       30.08R WCI  20
DANVILLE*      CLOUDY    29  26  90 N7        30.05R WCI  22
RANTOUL*       CLOUDY    31  23  72 N12       30.08S WCI  22
MATTOON        LGT SNOW  31  27  85 N8        30.07R FOG     WCI  23
PARIS*         CLOUDY    32  28  85 CALM      30.08R
$$

ILZ079-100>102-271300-
SOUTHWEST ILLINOIS

CITY           SKY/WX    TMP DP  RH WIND       PRES   REMARKS
ALTON          CLEAR     34  25  69 N6        30.13R WCI  29
BELLEVILLE     LGT RAIN  33  31  90 N8        30.11R WCI  26
CAHOKIA*       FLURRIES  34  30  85 N5        30.13R WCI  30
SPARTA*        CLOUDY    32  30  90 N7        30.12R WCI  26
$$

ILZ064>066-069>071-074>076-080>082-084>086-088>090-092>094-271300-
SOUTH-CENTRAL ILLINOIS

CITY           SKY/WX    TMP DP  RH WIND       PRES   REMARKS
CARBONDALE     CLOUDY    36  29  75 N12       30.08R WCI  28
6HR MIN TEMP:  31; 6HR MAX TEMP:  37;

CAIRO*         CLOUDY    38  31  75 N12       30.06R WCI  31
EFFINGHAM*     CLOUDY    33  25  73 NW9       30.09R WCI  25
MARION         CLOUDY    37  30  75 N12       30.08R WCI  30
MT. VERNON     CLOUDY    36  25  64 N5        30.08R WCI  32
CENTRALIA*     CLOUDY    33  29  85 N12       30.09R WCI  24
SALEM*         CLOUDY    35  31  85 NW7       30.09R WCI  29
METROPOLIS*    CLOUDY    37  35  94 N6        30.04R WCI  32
$$

ILZ067-068-072-073-078-083-087-091-271300-
SOUTHEAST ILLINOIS

CITY           SKY/WX    TMP DP  RH WIND       PRES   REMARKS
LAWRENCEVILLE  CLOUDY    34  28  79 N7        30.05R WCI  28
FLORA*         CLOUDY    33  28  82 NW9       30.08R WCI  26
FAIRFIELD*     MOCLDY    35  29  78 NW5       30.06R WCI  31
HARRISBURG*    CLOUDY    36  31  82 N8        30.06R WCI  30
ROBINSON*      MOCLDY    33  29  86 N7        30.07R WCI  26
CARMI*         CLOUDY    37  31  78 N9        30.04R WCI  31
$$

ABBREVIATIONS USED IN REMARKS
   TC - TEMPERATURE IN CELSIUS
  WCI - WIND CHILL INDEX
   HX - HEAT INDEX
  VSB - VISIBILITY
$$




USA.gov is the U.S. government's official web portal to all federal, state and local government web resources and services.